Pagina principale
METAR-TAF:

METAR-TAF

Aeroporti :

Rieti, Italia

Aeroporto di Rieti

latitudine: 42-25N, longitudine: 012-51E, altezza: 389 m

Osservazione

Il bollettino è stato emesso 1 ora e 14 minuti fa, alle 11:50 UTC
Vento 7 kt da sud/sud-ovest
Temperature 10°C
Umidità 87%
Pressione 1013 hPa
Visibilità: 5000 m
Nuvoloso ad un'altezza di 1500 ft
pioggia debole

METAR: LIQN 161150Z 21007KT 5000 -RA BKN015 10/08 Q1013

Ora: 14:04 (13:04 UTC)


TAF: mancante

Osservazioni e previsioni meteorologiche di più di 4000 aeroporti (messaggi METAR e TAF).

Le stazioni disponibili sono rappresentate dai dischi gialli e rossi sulla carta.

Puntare il mouse per vedere il nome della stazione.

Clicca sopra per visualizzare le osservazioni e previsioni meteorologiche.

Per cambiare la mappa : fare clic sui pulsanti verdi con una croce nera per ingrandire, il pulsante verde con un trattino per diminuire, o sulla freccia verde per le mappe adiacenti.


METAR-TAF: